• Em Portugal
  • Lista de países
  • Para 7 dias
  • Temperatura da água
  • Mapas de satélite
  • Mapa do tempo
  • Widgets de tempo
  • user-avatar
    Iniciar Sessão

    Previsão horária em Teolin

    Hoje, 19 Setembro, Quarta-feira

    Tempo Temperatura Precipitação Vento Pressão Humidade
    00:00 +13°C° 0 mm 2 m/s 748 mmHg 91%
    01:00 +13°C° 0 mm 2 m/s 748 mmHg 92%
    02:00 +13°C° 0 mm 2 m/s 748 mmHg 93%
    03:00 +13°C° 0 mm 2 m/s 748 mmHg 93%
    04:00 +13°C° 0 mm 2 m/s 748 mmHg 94%
    05:00 +12°C° 0 mm 3 m/s 748 mmHg 94%
    06:00 +13°C° 0 mm 3 m/s 748 mmHg 90%
    07:00 +14°C° 0 mm 3 m/s 748 mmHg 86%
    08:00 +16°C° 0 mm 3 m/s 748 mmHg 83%
    09:00 +18°C° 0 mm 4 m/s 748 mmHg 78%
    10:00 +20°C° 0 mm 4 m/s 748 mmHg 73%
    11:00 +21°C° 0 mm 4 m/s 748 mmHg 68%
    12:00 +22°C° 0 mm 4 m/s 748 mmHg 66%
    13:00 +23°C° 0 mm 5 m/s 748 mmHg 64%
    14:00 +25°C° 0 mm 5 m/s 748 mmHg 61%
    15:00 +23°C° 0 mm 4 m/s 748 mmHg 65%
    16:00 +22°C° 0 mm 4 m/s 747 mmHg 70%
    17:00 +22°C° 0 mm 3 m/s 747 mmHg 74%
    18:00 +20°C° 0 mm 3 m/s 747 mmHg 78%
    19:00 +19°C° 0 mm 3 m/s 747 mmHg 82%
    20:00 +18°C° 0 mm 3 m/s 747 mmHg 86%
    21:00 +17°C° 0 mm 3 m/s 747 mmHg 88%
    22:00 +17°C° 0 mm 3 m/s 747 mmHg 90%
    23:00 +17°C° 0 mm 3 m/s 747 mmHg 92%

    Amanhã, 20 Setembro, Quinta-feira

    Tempo Temperatura Precipitação Vento Pressão Humidade
    00:00 +16°C° 0 mm 3 m/s 747 mmHg 93%
    01:00 +16°C° 0 mm 3 m/s 747 mmHg 94%
    02:00 +16°C° 0 mm 3 m/s 748 mmHg 95%
    03:00 +16°C° 0 mm 3 m/s 748 mmHg 95%
    04:00 +15°C° 0 mm 2 m/s 748 mmHg 96%
    05:00 +15°C° 0 mm 2 m/s 748 mmHg 96%
    06:00 +16°C° 0 mm 2 m/s 748 mmHg 94%
    07:00 +17°C° 0 mm 2 m/s 748 mmHg 92%
    08:00 +17°C° 0 mm 2 m/s 749 mmHg 90%
    09:00 +19°C° 0 mm 2 m/s 749 mmHg 83%
    10:00 +20°C° 0 mm 2 m/s 749 mmHg 75%
    11:00 +22°C° 0 mm 3 m/s 749 mmHg 68%
    12:00 +22°C° 0 mm 3 m/s 749 mmHg 65%
    13:00 +24°C° 0 mm 3 m/s 749 mmHg 62%
    14:00 +25°C° 0 mm 3 m/s 749 mmHg 59%
    15:00 +24°C° 0 mm 2 m/s 749 mmHg 63%
    16:00 +23°C° 0 mm 2 m/s 748 mmHg 67%
    17:00 +22°C° 0 mm 1 m/s 748 mmHg 70%
    18:00 +21°C° 0 mm 1 m/s 748 mmHg 74%
    19:00 +19°C° 0 mm 1 m/s 749 mmHg 78%
    20:00 +18°C° 0 mm 1 m/s 749 mmHg 81%
    21:00 +18°C° 0 mm 1 m/s 749 mmHg 82%
    22:00 +16°C° 0 mm 1 m/s 749 mmHg 82%
    23:00 +16°C° 0 mm 1 m/s 749 mmHg 83%

    Depois de amanhã, 21 Setembro, Sexta-feira

    Tempo Temperatura Precipitação Vento Pressão Humidade
    00:00 +16°C° 0 mm 1 m/s 749 mmHg 84%
    01:00 +16°C° 0 mm 1 m/s 749 mmHg 85%
    02:00 +16°C° 0 mm 1 m/s 749 mmHg 86%
    03:00 +16°C° 0 mm 1 m/s 749 mmHg 88%
    04:00 +15°C° 0 mm 2 m/s 749 mmHg 90%
    05:00 +15°C° 0 mm 2 m/s 749 mmHg 91%
    06:00 +16°C° 0 mm 2 m/s 749 mmHg 89%
    07:00 +18°C° 0 mm 2 m/s 749 mmHg 87%
    08:00 +19°C° 0 mm 2 m/s 749 mmHg 84%
    09:00 +20°C° 0 mm 2 m/s 749 mmHg 79%
    10:00 +23°C° 0 mm 2 m/s 749 mmHg 73%
    11:00 +25°C° 0 mm 2 m/s 749 mmHg 68%
    12:00 +25°C° 0 mm 3 m/s 749 mmHg 65%
    13:00 +26°C° 0 mm 3 m/s 749 mmHg 63%
    14:00 +26°C° 0 mm 3 m/s 749 mmHg 60%
    15:00 +25°C° 0.1 mm 3 m/s 748 mmHg 64%
    16:00 +25°C° 0.1 mm 2 m/s 748 mmHg 68%
    17:00 +24°C° 0.1 mm 2 m/s 748 mmHg 72%
    18:00 +21°C° 0 mm 2 m/s 748 mmHg 75%
    19:00 +20°C° 0 mm 3 m/s 748 mmHg 78%
    20:00 +18°C° 0 mm 3 m/s 747 mmHg 82%
    21:00 +18°C° 0 mm 3 m/s 747 mmHg 82%
    22:00 +18°C° 0 mm 3 m/s 747 mmHg 83%
    23:00 +17°C° 0 mm 3 m/s 747 mmHg 84%

    22 Setembro, Sábado

    Tempo Temperatura Precipitação Vento Pressão Humidade
    00:00 +17°C° 0 mm 3 m/s 747 mmHg 84%
    01:00 +17°C° 0 mm 4 m/s 746 mmHg 84%
    02:00 +15°C° 0 mm 4 m/s 746 mmHg 84%
    03:00 +15°C° 0 mm 4 m/s 746 mmHg 82%
    04:00 +15°C° 0 mm 4 m/s 745 mmHg 81%
    05:00 +15°C° 0 mm 5 m/s 745 mmHg 80%
    06:00 +15°C° 0 mm 5 m/s 745 mmHg 77%
    07:00 +16°C° 0 mm 6 m/s 744 mmHg 75%
    08:00 +17°C° 0 mm 6 m/s 744 mmHg 73%
    09:00 +20°C° 0 mm 6 m/s 744 mmHg 68%
    10:00 +21°C° 0 mm 7 m/s 743 mmHg 62%
    11:00 +23°C° 0 mm 7 m/s 743 mmHg 57%
    12:00 +24°C° 0 mm 7 m/s 743 mmHg 55%
    13:00 +24°C° 0 mm 7 m/s 742 mmHg 53%
    14:00 +26°C° 0 mm 7 m/s 742 mmHg 51%
    15:00 +24°C° 0.1 mm 6 m/s 741 mmHg 56%
    16:00 +23°C° 0.1 mm 5 m/s 741 mmHg 60%
    17:00 +21°C° 0.1 mm 4 m/s 741 mmHg 65%
    18:00 +19°C° 0.3 mm 5 m/s 741 mmHg 72%
    19:00 +15°C° 0.3 mm 5 m/s 742 mmHg 80%
    20:00 +13°C° 0.3 mm 5 m/s 742 mmHg 87%
    21:00 +12°C° 0.4 mm 5 m/s 742 mmHg 87%
    22:00 +10°C° 0.4 mm 5 m/s 742 mmHg 88%
    23:00 +10°C° 0.4 mm 5 m/s 742 mmHg 89%

    23 Setembro, Domingo

    Tempo Temperatura Precipitação Vento Pressão Humidade
    00:00 +9°C° 0.9 mm 5 m/s 742 mmHg 89%
    01:00 +8°C° 0.9 mm 5 m/s 742 mmHg 89%
    02:00 +8°C° 0.9 mm 6 m/s 742 mmHg 90%
    03:00 +7°C° 1.3 mm 5 m/s 743 mmHg 91%
    04:00 +7°C° 1.3 mm 4 m/s 743 mmHg 92%
    05:00 +7°C° 1.3 mm 4 m/s 743 mmHg 93%
    06:00 +8°C° 0.7 mm 4 m/s 743 mmHg 92%
    07:00 +9°C° 0.7 mm 3 m/s 743 mmHg 92%
    08:00 +9°C° 0.7 mm 3 m/s 743 mmHg 91%
    09:00 +10°C° 0.1 mm 3 m/s 743 mmHg 87%
    10:00 +11°C° 0.1 mm 4 m/s 743 mmHg 82%
    11:00 +12°C° 0.1 mm 4 m/s 744 mmHg 78%
    12:00 +13°C° 0 mm 4 m/s 744 mmHg 72%
    13:00 +13°C° 0 mm 4 m/s 744 mmHg 67%
    14:00 +14°C° 0 mm 4 m/s 744 mmHg 62%
    15:00 +14°C° 0 mm 4 m/s 744 mmHg 66%
    16:00 +13°C° 0 mm 3 m/s 744 mmHg 70%
    17:00 +12°C° 0 mm 3 m/s 744 mmHg 74%
    18:00 +12°C° 0 mm 2 m/s 744 mmHg 79%
    19:00 +10°C° 0 mm 2 m/s 744 mmHg 84%
    20:00 +9°C° 0 mm 2 m/s 744 mmHg 88%
    21:00 +8°C° 0 mm 2 m/s 744 mmHg 90%
    22:00 +8°C° 0 mm 2 m/s 744 mmHg 91%
    23:00 +8°C° 0 mm 2 m/s 744 mmHg 92%

    24 Setembro, Segunda-feira

    Tempo Temperatura Precipitação Vento Pressão Humidade
    00:00 +8°C° 0 mm 1 m/s 744 mmHg 92%
    01:00 +8°C° 0 mm 1 m/s 744 mmHg 92%
    02:00 +8°C° 0 mm 1 m/s 745 mmHg 92%
    03:00 +8°C° 0 mm 1 m/s 745 mmHg 92%
    04:00 +7°C° 0 mm 1 m/s 745 mmHg 92%
    05:00 +7°C° 0 mm 1 m/s 745 mmHg 93%
    06:00 +7°C° 0 mm 2 m/s 745 mmHg 90%
    07:00 +8°C° 0 mm 2 m/s 745 mmHg 87%
    08:00 +9°C° 0 mm 3 m/s 745 mmHg 84%
    09:00 +11°C° 0 mm 3 m/s 744 mmHg 78%
    10:00 +12°C° 0 mm 3 m/s 744 mmHg 72%
    11:00 +13°C° 0 mm 4 m/s 744 mmHg 66%
    12:00 +14°C° 0 mm 4 m/s 743 mmHg 64%
    13:00 +15°C° 0 mm 5 m/s 743 mmHg 61%
    14:00 +15°C° 0 mm 6 m/s 742 mmHg 59%
    15:00 +14°C° 0 mm 5 m/s 742 mmHg 63%
    16:00 +14°C° 0 mm 4 m/s 742 mmHg 67%
    17:00 +13°C° 0 mm 3 m/s 742 mmHg 72%
    18:00 +12°C° 0.2 mm 4 m/s 742 mmHg 73%
    19:00 +12°C° 0.2 mm 4 m/s 742 mmHg 75%
    20:00 +12°C° 0.2 mm 4 m/s 742 mmHg 76%
    21:00 +11°C° 0.4 mm 4 m/s 741 mmHg 78%
    22:00 +11°C° 0.4 mm 4 m/s 741 mmHg 79%
    23:00 +11°C° 0.4 mm 4 m/s 741 mmHg 81%
    Mostrar mais